Location: Nelson
(41.2830°S, 173.2830°E)
Time: 12:45:42
(UTC+13:00)

Radarsat Rocket - Pass Details

Date: 01 October 2021
Orbit: 933 x 1492 km, 100.6° (Epoch: 27 October)

Event Time Altitude Azimuth Distance (km) Brightness Sun altitude
Rises 06:00:10 0° 41° (NE) 4,603 7.9 -12.2°
Reaches altitude 10° 06:03:07 10° 47° (NE) 3,640 7.4 -11.6°
Maximum altitude 06:11:15 47° 116° (ESE) 1,888 6.1 -10.1°
Drops below altitude 10° 06:19:05 10° 185° (S) 3,519 7.0 -8.7°
Sets 06:21:53 0° 190° (S) 4,440 7.5 -8.2°
